Theta_e
299 298 298 298 297 296 296 295 295 295 295 295 294 294 294 295 295 295 295 295 295 295 294 293 293 292 293 292 292 291 291 292 291 290 290 290 291 291 289 289 290 290
298 299 299 298 297 297 297 297 296 295 295 296 296 295 295 296 295 295 295 294 294 294 293 293 293 292 292 291 291 290 290 290 289 289 290 290 290 289 289 290 290 290
298 298 298 297 296 296 296 296 296 296 296 296 296 295 296 296 295 295 294 294 294 294 293 292 292 291 291 291 290 290 290 289 289 288 289 289 288 288 289 289 289 289
298 298 298 297 297 296 296 295 295 296 296 295 295 295 295 295 295 294 294 293 294 293 293 292 291 291 290 290 290 290 290 290 289 288 288 288 288 289 288 288 289 288
298 298 298 298 298 297 297 296 295 295 295 295 295 294 294 294 294 293 293 293 293 292 292 291 291 290 290 290 290 289 288 288 287 288 288 287 288 288 288 289 289 289
298 298 298 298 297 296 296 295 295 295 295 294 294 294 294 294 293 293 293 292 293 293 292 291 291 291 290 290 289 289 288 287 287 287 288 288 288 288 289 289 289 289
298 298 298 298 297 297 296 296 296 295 295 295 294 293 293 292 292 293 293 292 292 292 291 290 290 290 290 290 289 289 288 288 288 288 288 289 289 289 289 290 290 289
298 298 298 297 296 297 297 297 297 296 295 294 294 294 293 292 292 293 293 292 291 291 291 291 291 291 291 291 289 288 288 290 289 288 288 289 290 289 289 289 289 289
298 298 298 297 296 297 296 296 297 296 295 294 294 293 293 293 292 292 292 292 291 291 291 291 291 290 290 290 290 289 289 289 290 289 289 289 289 289 289 289 289 289
297 298 298 297 297 297 296 297 296 296 296 295 294 293 292 293 293 292 292 291 291 291 291 291 290 290 289 290 290 290 290 289 289 289 290 289 289 290 290 289 289 288
298 298 297 297 297 297 297 297 296 296 295 294 293 292 292 292 292 292 291 291 291 291 290 290 290 290 289 289 290 290 290 290 290 289 289 290 291 291 289 290 289 289
297 297 297 296 297 297 297 297 297 296 294 294 293 292 292 292 292 292 292 291 291 291 291 290 290 290 289 289 288 289 289 290 290 290 289 290 290 291 290 290 290 290
297 297 297 297 297 297 297 297 296 295 294 294 294 293 292 291 292 292 292 292 292 292 291 290 289 289 289 289 289 289 289 290 290 290 290 290 290 290 290 290 290 290
298 298 298 298 298 297 297 297 296 295 294 294 294 293 292 292 291 292 292 292 292 292 291 291 290 290 290 289 289 290 290 290 290 290 290 290 290 290 290 289 289 289
298 298 298 298 298 298 297 297 296 296 295 294 293 293 293 293 292 291 291 290 291 292 291 290 290 290 290 289 289 290 291 290 291 290 289 289 289 289 289 289 289 289
299 298 298 298 298 298 297 297 296 295 295 294 293 293 293 292 291 291 290 290 290 290 290 290 290 291 289 288 289 289 291 291 291 290 289 289 289 289 289 290 290 289
299 298 298 297 298 298 298 297 296 295 294 293 294 294 293 291 290 290 290 290 290 290 290 290 290 291 288 289 289 289 290 290 290 290 290 290 290 290 290 290 290 289
299 299 298 297 298 297 297 296 295 294 294 294 293 292 292 291 291 291 291 291 291 290 290 290 291 289 289 290 290 290 289 289 289 289 289 290 290 290 290 290 290 288
298 298 297 297 297 297 296 295 295 294 294 294 293 293 293 292 292 292 291 292 291 290 289 290 290 290 289 290 290 290 290 288 290 290 290 290 290 291 290 290 290 290
298 297 296 296 296 296 296 295 295 294 294 294 294 294 294 294 293 293 292 292 292 291 291 291 291 289 290 289 289 290 290 289 289 290 290 290 291 291 291 290 289 288
297 296 296 296 296 296 295 295 295 295 295 295 295 295 294 294 294 293 293 293 292 291 291 292 292 290 290 290 290 290 290 290 290 290 290 290 290 290 290 289 288 288
296 296 297 296 296 295 295 294 294 295 295 295 295 296 295 295 293 293 293 292 292 291 291 292 293 290 290 290 290 290 291 290 290 290 289 289 289 289 289 289 289 289
297 296 296 296 296 295 295 295 295 295 295 296 295 296 295 293 292 291 293 293 293 292 291 292 293 291 289 289 290 290 290 290 290 289 289 289 290 290 289 289 290 290
297 297 296 295 296 295 295 296 296 297 297 296 295 295 295 294 294 294 294 294 293 292 291 291 291 290 289 289 290 290 290 291 290 289 290 290 290 290 290 291 291 287
297 297 296 296 296 296 296 296 297 297 297 296 296 296 295 295 294 294 294 293 293 292 288 290 291 291 289 289 290 290 290 292 291 291 291 292 292 292 293 292 293 289
297 296 296 296 296 296 297 297 297 295 295 294 293 295 294 293 292 292 293 293 293 292 292 292 292 292 291 289 290 290 290 291 292 291 291 292 292 291 291 293 293 293
Wind_Speed
9 8 8 7 8 8 9 10 9 11 11 10 9 9 9 8 8 8 7 7 7 6 5 5 5 4 3 3 3 2 3 3 3 3 4 4 4 5 5 5 4 3
10 9 7 7 7 7 7 7 11 10 11 9 6 7 7 8 9 8 8 6 6 5 5 5 5 4 4 4 4 4 3 3 4 2 3 5 4 4 4 4 4 3
10 11 13 12 10 12 11 10 10 10 9 8 7 8 7 8 9 8 7 7 6 6 5 5 5 4 3 4 4 4 4 4 4 4 4 4 3 4 3 4 3 4
10 10 10 10 9 10 10 10 9 7 8 8 6 7 7 10 8 8 7 7 7 6 5 5 5 5 4 4 5 4 4 4 3 4 4 3 3 3 3 3 3 3
10 9 8 9 9 10 10 11 10 9 11 10 7 7 7 8 7 7 6 7 7 6 6 5 5 5 5 4 5 3 3 2 3 4 4 4 3 4 3 4 4 5
8 7 8 9 11 11 11 10 9 9 10 9 8 8 9 10 9 7 8 8 7 7 7 6 6 6 6 5 5 3 4 3 4 5 4 5 4 4 3 4 4 5
10 10 9 9 10 9 9 8 8 8 8 7 8 9 9 9 9 10 9 8 8 8 9 8 8 7 6 5 5 5 5 5 5 5 6 5 5 5 4 4 5 5
10 9 9 9 11 9 8 7 9 9 9 8 9 10 10 9 10 8 8 9 8 9 8 8 8 8 8 7 7 6 6 4 5 7 7 6 6 6 6 4 5 6
9 10 10 11 11 8 9 10 10 10 9 10 10 10 9 8 8 8 8 8 7 7 7 7 8 8 7 8 8 8 8 7 6 8 8 7 7 7 7 6 7 7
9 10 11 11 10 9 10 9 10 10 8 9 9 9 9 8 8 9 8 8 8 8 8 8 7 6 6 7 9 9 8 9 8 7 6 7 8 8 8 8 8 7
10 10 10 10 10 9 10 9 10 10 9 9 9 9 8 8 7 6 8 8 8 8 9 9 9 8 8 8 7 7 7 7 8 7 7 7 8 8 8 8 7 7
10 10 10 10 9 10 10 10 9 9 9 7 8 9 8 8 9 8 8 9 8 8 8 7 6 7 7 7 7 7 7 8 7 7 7 8 8 7 7 7 7 8
9 9 8 9 8 9 9 9 9 8 8 8 8 8 8 8 8 10 8 8 9 8 8 8 8 7 7 7 7 8 9 8 8 8 7 7 7 7 7 7 7 6
9 9 8 8 8 8 9 9 8 8 8 8 7 7 8 8 8 9 7 7 8 8 8 7 8 8 8 8 8 9 8 8 8 7 7 7 6 7 7 7 8 8
9 8 7 8 8 9 9 9 9 8 8 8 7 7 7 7 7 7 7 8 8 8 8 7 7 7 7 7 8 9 8 8 8 7 7 7 7 8 8 7 7 7
9 9 9 9 9 10 9 9 8 8 8 8 7 6 7 6 6 6 7 8 8 7 7 7 7 7 9 12 10 7 8 6 6 7 8 8 8 8 8 9 9 8
8 8 9 9 9 9 10 9 9 7 7 8 7 8 7 7 7 7 7 7 8 8 8 7 7 7 12 11 12 12 8 6 7 7 7 8 8 9 9 9 8 9
9 9 9 9 9 10 9 8 7 7 8 8 8 8 7 6 7 8 8 8 7 7 8 8 8 10 12 11 13 13 11 7 7 7 7 8 8 9 8 7 7 7
8 9 9 8 8 8 7 7 8 8 8 8 9 8 6 8 9 8 8 8 8 8 8 8 8 10 12 10 11 12 12 11 8 9 9 9 9 10 9 8 7 6
7 8 7 7 7 7 7 8 8 8 8 7 7 7 9 9 9 9 9 9 9 9 8 8 8 9 13 13 14 15 16 15 9 9 9 9 9 8 7 7 6 5
7 7 7 7 7 7 7 8 9 8 9 8 8 10 10 11 9 8 8 7 7 7 7 7 8 11 13 14 15 16 16 15 9 7 7 8 7 7 8 7 5 6
7 7 7 7 7 7 7 8 8 8 8 8 8 8 7 6 6 7 7 8 8 8 8 9 8 12 13 13 15 14 14 9 8 7 6 6 7 7 7 7 7 8
8 8 7 8 7 8 8 9 9 9 8 7 9 9 9 8 8 8 6 7 7 7 8 9 6 9 12 14 15 16 11 8 8 7 7 7 8 7 7 8 8 9
9 9 8 8 8 9 8 8 7 6 8 7 8 8 8 8 7 6 7 8 8 8 10 10 9 7 12 14 15 15 11 7 7 6 8 8 7 7 7 8 10 10
9 9 8 8 8 8 8 8 8 8 7 7 7 7 7 6 6 7 6 6 7 8 7 9 8 7 11 13 14 15 12 8 7 7 8 8 7 7 7 7 7 8
7 8 8 8 8 7 6 7 6 5 7 6 6 5 5 5 5 5 6 7 7 8 9 10 10 8 10 14 15 15 16 10 7 7 9 8 7 6 5 7 7 7
Wind_Direction
148 149 151 155 163 170 164 156 159 164 169 162 164 170 172 159 157 165 163 165 172 162 150 148 153 162 159 148 173 149 158 161 149 153 177 185 203 188 196 201 197 217
147 149 145 145 148 160 166 158 166 165 161 159 151 151 158 157 162 162 162 159 156 161 158 157 161 166 160 157 158 169 160 163 157 165 168 200 194 182 198 190 190 192
148 156 164 163 164 169 166 162 167 162 157 157 138 156 159 162 159 165 161 162 164 162 164 150 150 158 156 150 161 175 171 169 164 175 189 191 176 187 179 178 183 177
159 161 161 157 155 156 154 155 157 153 157 157 154 157 157 171 150 154 155 160 165 166 155 148 151 157 163 159 170 179 182 174 158 162 174 178 189 182 171 171 161 164
158 154 151 154 151 153 155 162 165 169 169 164 136 147 145 149 154 154 153 164 167 164 160 158 153 160 166 172 183 164 164 155 167 178 177 179 182 184 173 176 172 183
146 146 150 151 155 158 164 168 167 165 163 152 158 160 164 164 162 156 163 170 173 167 166 169 170 176 178 176 178 170 161 173 186 189 187 183 181 188 173 185 177 186
154 153 147 153 156 161 163 166 162 164 161 151 149 165 162 162 168 172 171 173 172 174 179 179 178 179 177 175 179 175 181 185 182 193 193 195 182 179 182 187 190 189
156 154 152 154 159 161 166 167 170 169 159 148 163 169 167 169 169 164 175 177 181 184 185 185 185 182 179 181 184 179 182 179 186 194 200 194 184 185 182 187 186 191
154 157 156 159 160 164 173 173 174 170 164 161 165 165 168 169 167 171 170 174 179 184 187 190 189 180 178 183 185 184 184 188 193 197 199 190 191 190 185 183 191 198
158 162 163 164 164 167 170 169 173 175 166 166 161 160 164 169 166 172 162 175 183 189 193 193 191 179 178 191 190 187 187 189 194 201 201 198 195 193 188 189 196 193
168 168 169 167 168 167 168 169 173 170 169 163 157 161 167 160 163 160 171 178 187 187 189 191 191 186 186 189 193 192 192 192 195 198 203 203 203 200 195 195 195 199
167 168 170 170 172 172 170 172 171 167 162 159 163 162 160 165 169 174 184 190 189 194 197 191 185 185 190 189 188 190 198 202 200 199 201 204 206 204 199 201 204 204
163 168 169 168 169 173 173 176 173 165 161 165 167 167 162 166 173 181 185 190 192 190 192 192 195 196 198 196 192 194 201 202 202 202 201 204 209 208 207 208 212 208
171 171 170 171 171 170 173 175 171 164 168 165 161 167 174 180 177 180 179 189 193 190 190 190 194 199 203 200 199 200 199 204 203 200 202 204 209 213 212 212 213 216
170 170 167 169 172 175 177 176 173 172 171 167 170 179 184 182 179 164 173 191 198 193 187 187 196 206 203 197 196 202 203 204 204 202 202 205 209 214 216 215 214 215
170 170 173 171 175 180 178 173 170 170 169 167 170 180 186 180 174 172 180 189 195 195 191 191 205 211 209 203 200 196 198 201 200 205 207 211 210 213 217 215 215 216
167 169 170 170 176 180 179 174 173 167 168 172 181 187 186 184 181 178 185 188 193 192 194 200 209 217 207 198 203 204 201 195 202 209 211 213 214 216 218 212 211 214
172 172 172 175 176 178 171 168 167 168 175 180 183 186 187 179 184 188 192 191 192 193 201 210 218 217 202 195 201 199 200 205 207 211 210 213 216 221 225 220 216 209
170 172 174 173 174 172 167 168 171 174 180 184 189 186 179 185 192 191 194 192 190 196 212 216 225 213 204 191 197 195 194 206 218 215 211 212 214 217 220 218 213 210
169 171 170 171 169 170 169 173 175 181 183 181 180 183 193 197 197 195 194 192 192 198 211 221 226 208 205 204 205 203 204 204 225 222 219 221 220 219 220 220 210 204
169 174 176 175 174 173 174 178 181 188 187 186 187 192 199 204 200 197 198 193 193 200 213 222 226 208 205 210 211 211 211 209 225 226 228 228 223 223 227 223 209 222
177 180 182 175 177 178 178 182 186 188 188 183 193 200 203 195 198 206 199 198 198 200 213 229 229 202 208 211 213 214 209 214 225 230 232 235 235 228 229 235 232 227
185 183 184 184 182 183 188 191 190 192 194 181 194 202 200 200 199 200 204 203 196 198 214 231 232 196 202 212 217 217 211 221 227 236 240 240 237 226 225 233 234 227
190 187 189 190 189 191 193 196 196 194 196 182 195 198 204 201 197 201 206 210 208 207 213 227 237 210 201 212 216 217 211 214 221 230 244 242 245 232 230 234 233 212
189 190 192 191 193 194 192 197 199 202 194 180 200 200 205 196 196 209 211 213 216 221 217 223 236 218 203 211 212 212 207 211 214 225 236 240 242 242 230 232 236 207
187 188 192 190 194 195 195 202 194 189 193 190 200 203 194 185 189 207 217 215 208 214 218 220 225 224 204 210 213 212 206 205 213 220 232 235 236 241 248 244 230 226